www.pogodaiklimat.ru

Погода и климат >> Архив погоды >> Австралия >> Западная Австралия >> База ВВС Curtin


ПОГОДА на Базе ВВС Curtin

  • Прогноз погоды на Базе ВВС Curtin
  • Монитор погоды на Базе ВВС Curtin

АРХИВ ПОГОДЫ на Базе ВВС Curtin

Время (UTC), дата Ветер
(напр.,м/с)
 
Видим.   Явления Облачность Т
(С)
Тd
(С)
f
(%)
Тe
(С)
Тes
(С)
Комфортность P
(гПа)
Po
(гПа)
Тmin
(С)
Tmax
(С)
R
(мм)
R24
(мм)
S
(см)
10 14.04 СЗ 3 н/о н/о +30.2 +23.6 68 +41 +41 опасность
перегрева
1008.5 999.7
12 14.04 З 4 н/о н/о +29.3 +25.3 79 +43 +43 опасность
перегрева
1009.7 1000.9
13 14.04 З 3 н/о н/о +28.1 +23.5 76 +38 +38 очень
душно
1010.1 1001.3 +36.7
15 14.04 ЮЗ 3 н/о н/о +26.3 +24.0 87 +36 +36 очень
душно
1010.2 1001.4
16 14.04 ЮЗ 4 н/о н/о +26.2 +24.8 92 +37 +37 очень
душно
1010.2 1001.4
18 14.04 ЮЗ 4 н/о н/о +26.0 +25.7 98 +38 +38 очень
душно
1009.7 1000.9
19 14.04 ЮЗ 3 н/о н/о +25.7 +25.7 100 +38 +38 очень
душно
1009.8 1001.0
21 14.04 СЗ 2 н/о н/о +24.6 +24.6 100 +34 +34 очень
душно
1010.4 1001.6
22 14.04 С 2 8000 м н/о +24.2 +24.2 100 +33 +33 очень
душно
1011.0 1002.2
00 15.04 З 3 н/о н/о +28.9 +25.5 82 +43 +43 опасность
перегрева
1012.2 1003.4
01 15.04 ЮЗ 4 н/о н/о +30.2 +23.1 66 +40 +40 очень
душно
1012.4 1003.6 +24.2
03 15.04 ЮЗ 4 н/о н/о +33.3 +22.1 52 +42 +42 опасность
перегрева
1011.0 1002.2
04 15.04 ЮЗ 4 н/о н/о +34.3 +21.4 47 +42 +42 опасность
перегрева
1009.8 1001.0
06 15.04 ЮЗ 4 н/о н/о +36.0 +19.0 37 +41 +41 опасность
перегрева
1007.9 999.1
07 15.04 З 4 н/о н/о +36.1 +17.7 34 +40 +40 очень
душно
1007.6 998.8
09 15.04 СЗ 5 н/о н/о +33.6 +22.1 51 +42 +42 опасность
перегрева
1007.9 999.1
10 15.04 СЗ 5 н/о 9/0
[]
+30.2 +24.8 73 +43 +43 опасность
перегрева
1008.7 999.9
12 15.04 СЗ 4 н/о н/о +29.2 +25.0 78 +42 +42 опасность
перегрева
1010.6 1001.8
13 15.04 З 3 н/о 8/0
[]
+28.8 +24.1 76 +40 +40 очень
душно
1011.0 1002.2 +37.1
15 15.04 З 3 н/о н/о +27.2 +24.3 84 +38 +38 очень
душно
1010.9 1002.1
16 15.04 З 4 н/о н/о +26.6 +24.4 88 +37 +37 очень
душно
1010.7 1001.9
18 15.04 ЮЗ 3 н/о н/о +25.7 +24.5 93 +36 +36 очень
душно
1009.7 1000.9
19 15.04 ЮЗ 3 н/о н/о +25.2 +24.3 95 +35 +35 очень
душно
1009.5 1000.7
21 15.04 С 2 н/о н/о +23.6 +23.4 99 +32 +32 очень
душно
1010.6 1001.8
22 15.04 С 3 н/о н/о +23.2 +23.2 100 +33 +33 очень
душно
1011.2 1002.4
00 16.04 ЮЗ 3 н/о н/о +28.2 +24.4 80 +40 +40 очень
душно
1012.5 1003.7
01 16.04 ЮЗ 3 н/о н/о +29.7 +23.4 69 +40 +40 очень
душно
1012.7 1003.9 +23.2
03 16.04 ЮЗ 4 н/о н/о +32.9 +22.7 55 +43 +43 опасность
перегрева
1011.5 1002.7
04 16.04 З 4 н/о н/о +33.6 +22.1 51 +42 +42 опасность
перегрева
1010.5 1001.7
06 16.04 ЮЗ 5 н/о н/о +35.7 +21.2 43 +43 +43 опасность
перегрева
1008.9 1000.1
07 16.04 З 3 н/о н/о +36.4 +20.2 39 +42 +42 опасность
перегрева
1008.3 999.5
09 16.04 ЮЗ 3 н/о н/о +35.6 +18.7 37 +40 +40 очень
душно
1008.6 999.8
10 16.04 СЗ 4 н/о н/о +31.2 +23.8 65 +43 +43 опасность
перегрева
1009.3 1000.5
12 16.04 СЗ 3 н/о н/о +29.0 +26.8 88 +45 +45 опасность
перегрева
1010.7 1001.9
13 16.04 З 6 н/о н/о +29.2 +23.2 70 +39 +39 очень
душно
1010.8 1002.0 +36.9
15 16.04 З 3 н/о н/о +26.6 +23.3 82 +36 +36 очень
душно
1010.4 1001.6
16 16.04 З 2 н/о н/о +25.9 +23.8 88 +35 +35 очень
душно
1010.2 1001.4
18 16.04 ЮЗ 3 н/о н/о +25.4 +24.7 96 +36 +36 очень
душно
1009.5 1000.7
19 16.04 ЮЗ 3 н/о н/о +25.3 +25.0 98 +36 +36 очень
душно
1009.4 1000.6
21 16.04 З 2 н/о н/о +24.6 +24.6 100 +34 +34 очень
душно
1010.4 1001.6
22 16.04 З 1 н/о н/о +23.7 +23.7 100 +32 +32 очень
душно
1010.9 1002.1
00 17.04 З 3 н/о н/о +28.9 +25.9 84 +43 +43 опасность
перегрева
1012.0 1003.2
01 17.04 ЮЗ 2 н/о н/о +30.5 +24.4 70 +43 +43 опасность
перегрева
1012.4 1003.6 +23.7
03 17.04 ЮЗ 4 н/о н/о +33.7 +22.5 52 +43 +43 опасность
перегрева
1011.3 1002.5
04 17.04 Ю 3 н/о н/о +35.6 +22.9 48 +45 +45 опасность
перегрева
1010.2 1001.4
06 17.04 ЮЗ 4 н/о н/о +37.7 +20.9 38 +44 +44 опасность
перегрева
1008.0 999.2
07 17.04 ЮЗ 4 н/о н/о +37.9 +20.2 36 +44 +44 опасность
перегрева
1007.3 998.5
09 17.04 СЗ 3 н/о н/о +32.3 +20.5 50 +39 +39 очень
душно
1008.4 999.6
10 17.04 СЗ 4 н/о н/о +30.0 +26.0 79 +45 +45 опасность
перегрева
1009.2 1000.4
12 17.04 СЗ 2 н/о н/о +29.0 +27.2 90 +46 +46 опасность
перегрева
1010.8 1002.0
13 17.04 СЗ 2 н/о н/о +28.5 +26.7 90 +44 +44 опасность
перегрева
1011.1 1002.3 +38.8
15 17.04 ЮЗ 2 н/о н/о +27.6 +23.8 80 +38 +38 очень
душно
1010.6 1001.8
16 17.04 С 2 н/о н/о +25.2 +23.4 90 +34 +34 очень
душно
1010.4 1001.6
18 17.04 СЗ 3 н/о н/о +24.8 +23.6 93 +34 +34 очень
душно
1009.0 1000.2
19 17.04 СВ 3 н/о н/о +24.5 +24.2 98 +34 +34 очень
душно
1009.2 1000.4
21 17.04 В 2 н/о н/о +24.8 +24.8 100 +35 +35 очень
душно
1010.3 1001.5
22 17.04 штиль 0 н/о н/о +24.9 +24.9 100 +35 +35 очень
душно
1010.7 1001.9
00 18.04 СЗ 3 н/о н/о +29.7 +26.5 83 +46 +46 опасность
перегрева
1012.0 1003.2
01 18.04 СЗ 2 н/о 1/1 600 м
[]
+31.4 +25.5 71 +46 +54 опасность
перегрева
1012.2 1003.4 +24.5
03 18.04 С 4 н/о н/о +34.5 +25.0 58 +48 +48 опасность
перегрева
1011.0 1002.2
04 18.04 С 4 н/о 1/1 1000 м
[]
+36.3 +23.9 49 +48 +57 опасность
перегрева
1009.7 1000.9
06 18.04 СЗ 4 н/о н/о +35.8 +23.7 50 +47 +47 опасность
перегрева
1008.1 999.3
07 18.04 З 4 н/о в посл. час дождь со снегом {туман} 10/0
[]
+28.7 +23.6 74 +39 +42 очень
душно
1008.0 999.2
09 18.04 С 3 н/о н/о +29.5 +21.7 63 +38 +38 очень
душно
1009.6 1000.8
10 18.04 СЗ 3 н/о 10/0
[]
+28.4 +22.9 72 +38 +38 очень
душно
1009.4 1000.6
12 18.04 З 2 н/о н/о +26.9 +23.6 82 +37 +37 очень
душно
1010.6 1001.8
13 18.04 ЮЗ 3 н/о н/о +26.6 +23.9 85 +37 +37 очень
душно
1010.8 1002.0 +37.6
15 18.04 СВ 3 н/о н/о +23.7 +22.5 93 +31 +31 очень
душно
1010.8 1002.0
16 18.04 СВ 3 н/о н/о +23.3 +22.8 97 +32 +32 очень
душно
1010.9 1002.1
18 18.04 В 3 н/о н/о +23.0 +22.0 94 +31 +31 очень
душно
1010.4 1001.6
19 18.04 СВ 3 н/о н/о +22.7 +21.7 94 +30 +30 очень
душно
1010.1 1001.3
21 18.04 СВ 3 н/о н/о +22.4 +21.2 93 +29 +29 очень
душно
1010.4 1001.6
22 18.04 СВ 2 н/о н/о +22.2 +21.7 97 +29 +29 очень
душно
1011.3 1002.5
00 19.04 З 2 н/о н/о +28.5 +21.5 66 +36 +36 очень
душно
1012.5 1003.7
01 19.04 З 2 н/о н/о +29.9 +23.3 68 +40 +40 очень
душно
1012.7 1003.9 +22.1
03 19.04 СЗ 3 н/о н/о +32.8 +22.6 55 +42 +42 опасность
перегрева
1010.7 1001.9
04 19.04 З 2 н/о н/о +35.2 +22.5 48 +44 +44 опасность
перегрева
1009.5 1000.7
06 19.04 З 3 н/о н/о +35.7 +24.0 51 +47 +47 опасность
перегрева
1007.2 998.4
07 19.04 С 9 500 м ливневой дождь со снегом {туман} 9/9 100 м
[]
+25.3 +21.4 79 +32 +32 очень
душно
1008.0 999.2
09 19.04 С 3 н/о н/о +28.1 +24.3 80 +39 +39 очень
душно
1007.7 998.9
10 19.04 СЗ 3 н/о {туман} н/о +28.1 +24.9 83 +40 +40 очень
душно
1008.2 999.4
12 19.04 СЗ 2 н/о н/о +26.6 +25.4 93 +39 +39 очень
душно
1009.4 1000.6
13 19.04 З 2 н/о {туман} н/о +26.5 +25.5 94 +39 +39 очень
душно
1009.8 1001.0 +36.4
15 19.04 З 2 н/о н/о +25.2 +23.6 91 +34 +34 очень
душно
1009.8 1001.0
16 19.04 З 2 н/о н/о +24.6 +23.6 94 +33 +33 очень
душно
1009.8 1001.0
18 19.04 С 2 н/о н/о +24.0 +23.7 98 +33 +33 очень
душно
1009.1 1000.3
19 19.04 С 2 н/о 1/1 300 м
[]
+23.8 +23.8 100 +32 +32 очень
душно
1009.5 1000.7
21 19.04 С 2 н/о н/о +24.6 +24.6 100 +34 +34 очень
душно
1010.2 1001.4
22 19.04 СВ 2 н/о 8/8 300 м
[]
+24.9 +24.9 100 +35 +35 очень
душно
1010.8 1002.0
00 20.04 СЗ 3 н/о н/о +28.5 +26.9 91 +45 +45 опасность
перегрева
1012.0 1003.2
01 20.04 СЗ 2 н/о в посл. час дождь {туман} н/о +30.1 +25.4 76 +44 +44 опасность
перегрева
1012.0 1003.2 +23.7
03 20.04 СЗ 3 н/о н/о +32.5 +22.9 57 +43 +43 опасность
перегрева
1010.4 1001.6
04 20.04 З 3 н/о 1/1 1000 м
[]
+34.2 +24.2 56 +46 +60 опасность
перегрева
1009.2 1000.4
06 20.04 З 3 н/о н/о +35.0 +22.3 48 +44 +44 опасность
перегрева
1007.4 998.6
07 20.04 СЗ 5 н/о н/о +33.5 +22.6 53 +43 +43 опасность
перегрева
1007.5 998.7
09 20.04 СЗ 5 н/о н/о +29.1 +24.7 77 +41 +41 опасность
перегрева
1008.2 999.4
10 20.04 СЗ 4 н/о н/о +28.4 +25.2 83 +41 +41 опасность
перегрева
1008.7 999.9
12 20.04 С 2 н/о н/о +26.0 +22.9 83 +35 +35 очень
душно
1009.5 1000.7
13 20.04 С 2 н/о 9/0
[]
+25.7 +22.2 81 +33 +33 очень
душно
1009.7 1000.9 +35.3
15 20.04 штиль 0 н/о н/о +25.0 +23.6 92 +34 +34 очень
душно
1009.8 1001.0
16 20.04 штиль 0 н/о н/о +23.8 +23.5 98 +32 +32 очень
душно
1009.9 1001.1
18 20.04 З 3 н/о н/о +24.1 +22.9 93 +32 +32 очень
душно
1009.6 1000.8
19 20.04 штиль 0 н/о 5/5 300 м
[]
+23.7 +23.0 96 +31 +31 очень
душно
1009.4 1000.6
21 20.04 ЮЗ 3 н/о н/о +23.4 +22.9 97 +33 +33 очень
душно
1009.7 1000.9
22 20.04 ЮЗ 4 н/о н/о +23.5 +21.6 89 +30 +30 очень
душно
1010.0 1001.2
00 21.04 Ю 6 н/о н/о +27.8 +15.8 48 +31 +31 душно 1011.4 1002.6
01 21.04 ЮВ 6 н/о н/о +30.6 +15.1 39 +33 +33 душно 1011.4 1002.6 +23.3
03 21.04 ЮВ 3 н/о н/о +33.2 +15.7 35 +36 +36 очень
душно
1010.1 1001.3
04 21.04 Ю 4 н/о н/о +34.2 +16.5 35 +37 +37 очень
душно
1009.2 1000.4
06 21.04 Ю 6 н/о н/о +35.5 +16.8 33 +38 +38 очень
душно
1007.8 999.0
07 21.04 Ю 5 н/о н/о +36.0 +16.2 31 +38 +38 очень
душно
1007.3 998.5
09 21.04 ЮЗ 3 н/о н/о +34.0 +18.1 39 +38 +38 очень
душно
1007.7 998.9
10 21.04 ЮЗ 3 н/о н/о +30.2 +19.3 52 +36 +36 очень
душно
1008.0 999.2

 

Местоположение метеостанции База ВВС Curtin (Западная Австралия, Австралия): широта -17.58 долгота 123.82 высота над уровнем моря 78 м.

В архиве по умолчанию представлена погода на Базе ВВС Curtin за последнюю неделю. Архивные данные за месяц целиком и за предыдущие месяцы, начиная с января 2011 года, Вы можете получить, выбрав интересующий диапазон дат из раскрывающегося списка и нажав кнопку "Ввод!".


*Определитесь, кто Вы:
робот инопланетянин человек

Внимание! Время в таблицах - всемирное. Для получения местного времени необходимо прибавить поправку, которая равна 8 ч.

Смотрите также архив погоды в соседних городах и на ближайших метеорологических станциях:

Погода в Дерби (Северная территория, Австралия) (30 км)
Погода в Робак Запад (Западная Австралия, Австралия) (163 км)
Погода в Бруме (Западная Австралия, Австралия) (173 км)
Погода в Фицрой-Кроссинге (Западная Австралия, Австралия) (196 км)
Погода на Острове Адель (Западная Австралия, Австралия) (241 км)
Погода на Острове Брауз (Западная Австралия, Австралия) (387 км)
Погода в Мандоре (Западная Австралия, Австралия) (394 км)
Погода в Холс Крик (Западная Австралия, Австралия) (413 км)
Погода в Калумбуру (Западная Австралия, Австралия) (474 км)
Погода в Трускотте (Западная Австралия, Австралия) (476 км)

Пояснения к столбцам:

Ветер - указаны скорость ветра в м/с - средняя за 10 мин, порывы в срок и между сроками (в фигурных скобках) и направление, откуда дует ветер: С - северный, СВ - северо-восточный, В - восточный, ЮВ - юго-восточный, Ю - южный, ЮЗ - юго-западный, З - западный, СЗ - северо-западный.
Видимость - горизонтальная дальность видимости в метрах или километрах. При видимости от 1 до 10 км при отсутствии осадков обычно наблюдается дымка, при ухудшении видимости до 1 км и менее - туман. В сухую погоду видимость может ухудшаться дымом, пылью или мглою.
Явления - указаны атмосферные явления, наблюдавшиеся в срок или в последний час перед сроком; фигурными скобками обозначены явления, наблюдавшиеся между сроками (за 1-3 часа до срока); квадратными скобками обозначены град или гололедные отложения с указанием их диаметра в мм.
Облачность - указаны через наклонную черту общая и нижняя облачность в баллах и высота нижней границы облаков в метрах; квадратными скобками обозначены формы облаков: Ci - перистые, Cs - перисто-слоистые, Cc - перисто-кучевые, Ac - высококучевые, As - высокослоистые, Sc - слоисто-кучевые, Ns - слоисто-дождевые, Cu - кучевые, Cb - кучево-дождевые. Подробнее классификацию облаков см. в Атласе облаков (PDF).
T - Температура воздуха - температура, измеренная на высоте 2 м над землей.
Td - Температура точки росы - температура, при понижении до которой содержащийся в воздухе водяной пар достигнет насыщения.
f - Относительная влажность воздуха - влажноcть воздуха, измеренная на высоте 2 м над землей.
Te - Эффективная температура - температура, которую ощущает одетый по сезону человек в тени. Характеристика душности погоды. При расчете учитывается влияние влажности воздуха и скорости ветра на теплоощущения человека.
Tes - Эффективная температура на солнце - температура, которую ощущает человек, с поправкой на солнечный нагрев. Характеристика знойности погоды. Зависит от высоты солнца над горизонтом, облачности и скорости ветра. Ночью, в пасмурную погоду, а также при ветре 12 м/с и более поправка равна нулю.
P - Атмосферное давление - приведенное к уровню моря атмосферное давление.
Po - Атмосферное давление - измеренное на уровне метеостанции атмосферное давление.
Tmin - Минимальная температура - минимум температуры воздуха на высоте 2 м над землей.
Tmax - Максимальная температура - максимум температуры воздуха на высоте 2 м над землей.
R - Количество осадков - Количество выпавших осадков за период времени, мм. При наведении курсора мыши на число - период времени, за который выпало указанное количество осадков.
R24 - Количество осадков - Количество выпавших осадков за 24 часа, мм.
S - Снежный покров - Высота снежного покрова, см. При наведении курсора мыши на число - состояние снежного покрова и степень покрытия местности в баллах.